Time,TemperatureF,DewpointF,PressureIn,WindDirection,WindDirectionDegrees,WindSpeedMPH,WindSpeedGustMPH,Humidity,HourlyPrecipIn,Conditions,Clouds,dailyrainin,SolarRadiationWatts/m^2,SoftwareType,DateUTC
2013-11-24 17:15:00,30.0,23.4,30.41,NE,44,0.0,0.0,76,0.00,,,0.00,0,Wunderground v.1.15,2013-11-25 01:15:00,
2013-11-24 17:20:00,29.8,23.2,30.42,NE,44,0.0,0.0,76,0.00,,,0.00,0,Wunderground v.1.15,2013-11-25 01:20:00,
2013-11-24 17:25:00,29.6,23.3,30.42,NE,44,0.0,0.0,77,0.00,,,0.00,0,Wunderground v.1.15,2013-11-25 01:25:00,
2013-11-24 17:35:00,29.3,23.0,30.42,NE,44,0.0,0.0,77,0.00,,,0.00,0,Wunderground v.1.15,2013-11-25 01:35:00,
2013-11-24 17:40:00,29.2,23.2,30.42,NE,44,0.0,0.0,78,0.00,,,0.00,0,Wunderground v.1.15,2013-11-25 01:40:00,
2013-11-24 17:50:00,28.8,23.1,30.43,NE,44,0.0,0.0,79,0.00,,,0.00,0,Wunderground v.1.15,2013-11-25 01:50:00,
2013-11-24 18:00:00,28.6,22.9,30.43,NE,44,0.0,0.0,79,0.00,,,0.00,0,Wunderground v.1.15,2013-11-25 02:00:00,
2013-11-24 18:05:00,28.5,23.1,30.43,NE,44,0.0,0.0,80,0.00,,,0.00,0,Wunderground v.1.15,2013-11-25 02:05:00,
2013-11-24 18:10:00,28.5,23.1,30.43,NE,44,0.0,0.0,80,0.00,,,0.00,0,Wunderground v.1.15,2013-11-25 02:10:00,
2013-11-24 18:15:00,28.4,22.7,30.43,NE,44,0.0,0.0,79,0.00,,,0.00,0,Wunderground v.1.15,2013-11-25 02:15:00,
2013-11-24 18:25:00,28.0,22.6,30.43,NE,44,0.0,0.0,80,0.00,,,0.00,0,Wunderground v.1.15,2013-11-25 02:25:00,
2013-11-24 18:30:00,27.8,22.7,30.44,NE,44,0.0,0.0,81,0.00,,,0.00,0,Wunderground v.1.15,2013-11-25 02:30:00,
2013-11-24 18:35:00,27.8,22.7,30.44,NE,44,0.0,0.0,81,0.00,,,0.00,0,Wunderground v.1.15,2013-11-25 02:35:00,
2013-11-24 18:40:00,27.7,22.6,30.44,NE,44,0.0,0.0,81,0.00,,,0.00,0,Wunderground v.1.15,2013-11-25 02:40:00,
2013-11-24 18:45:00,27.7,22.6,30.44,NE,44,0.0,0.0,81,0.00,,,0.00,0,Wunderground v.1.15,2013-11-25 02:45:00,
2013-11-24 18:50:00,27.6,22.5,30.44,NE,44,0.0,0.0,81,0.00,,,0.00,0,Wunderground v.1.15,2013-11-25 02:50:00,
2013-11-24 19:00:00,27.4,22.3,30.44,NE,44,0.0,0.0,81,0.00,,,0.00,0,Wunderground v.1.15,2013-11-25 03:00:00,
2013-11-24 19:05:00,27.3,22.5,30.45,NE,44,0.0,0.0,82,0.00,,,0.00,0,Wunderground v.1.15,2013-11-25 03:05:00,
2013-11-24 19:10:00,27.1,22.3,30.44,NE,44,0.0,0.0,82,0.00,,,0.00,0,Wunderground v.1.15,2013-11-25 03:10:00,
2013-11-24 19:15:00,27.0,22.5,30.44,NE,44,0.0,0.0,83,0.00,,,0.00,0,Wunderground v.1.15,2013-11-25 03:15:00,
2013-11-24 19:20:00,26.8,22.3,30.44,NE,44,0.0,0.0,83,0.00,,,0.00,0,Wunderground v.1.15,2013-11-25 03:20:00,
2013-11-24 19:30:00,26.6,22.1,30.45,NE,44,0.0,0.0,83,0.00,,,0.00,0,Wunderground v.1.15,2013-11-25 03:30:00,
2013-11-24 19:40:00,26.4,21.9,30.45,NE,44,0.0,0.0,83,0.00,,,0.00,0,Wunderground v.1.15,2013-11-25 03:40:00,
2013-11-24 19:50:00,26.2,22.0,30.45,NE,44,0.0,0.0,84,0.00,,,0.00,0,Wunderground v.1.15,2013-11-25 03:50:00,
2013-11-24 19:55:00,26.2,22.0,30.44,NE,44,0.0,0.0,84,0.00,,,0.00,0,Wunderground v.1.15,2013-11-25 03:55:00,
2013-11-24 20:05:00,26.1,22.2,30.44,NE,44,0.0,0.0,85,0.00,,,0.00,0,Wunderground v.1.15,2013-11-25 04:05:00,
2013-11-24 20:10:00,26.1,22.2,30.44,NE,44,0.0,0.0,85,0.00,,,0.00,0,Wunderground v.1.15,2013-11-25 04:10:00,
2013-11-24 20:15:00,26.1,22.2,30.45,NE,44,0.0,0.0,85,0.00,,,0.00,0,Wunderground v.1.15,2013-11-25 04:15:00,
2013-11-24 20:20:00,26.0,21.8,30.45,NE,44,0.0,0.0,84,0.00,,,0.00,0,Wunderground v.1.15,2013-11-25 04:20:00,
2013-11-24 20:25:00,26.0,22.1,30.45,NE,44,0.0,0.0,85,0.00,,,0.00,0,Wunderground v.1.15,2013-11-25 04:25:00,
2013-11-24 20:30:00,25.9,22.0,30.45,NE,44,0.0,0.0,85,0.00,,,0.00,0,Wunderground v.1.15,2013-11-25 04:30:00,
2013-11-24 20:40:00,25.8,21.9,30.46,NE,44,0.0,0.0,85,0.00,,,0.00,0,Wunderground v.1.15,2013-11-25 04:40:00,
2013-11-24 20:45:00,25.8,21.9,30.46,NE,44,0.0,0.0,85,0.00,,,0.00,0,Wunderground v.1.15,2013-11-25 04:45:00,
2013-11-24 20:50:00,25.8,21.9,30.46,NE,44,0.0,0.0,85,0.00,,,0.00,0,Wunderground v.1.15,2013-11-25 04:50:00,
2013-11-24 20:55:00,25.8,21.9,30.47,NE,44,0.0,0.0,85,0.00,,,0.00,0,Wunderground v.1.15,2013-11-25 04:55:00,
2013-11-24 21:05:00,25.6,21.7,30.48,NE,44,0.0,0.0,85,0.00,,,0.00,0,Wunderground v.1.15,2013-11-25 05:05:00,
2013-11-24 21:10:00,25.4,21.5,30.48,NE,44,0.0,0.0,85,0.00,,,0.00,0,Wunderground v.1.15,2013-11-25 05:10:00,
2013-11-24 21:15:00,25.3,21.4,30.48,NE,44,0.0,0.0,85,0.00,,,0.00,0,Wunderground v.1.15,2013-11-25 05:15:00,
2013-11-24 21:20:00,25.2,21.6,30.48,NE,44,0.0,0.0,86,0.00,,,0.00,0,Wunderground v.1.15,2013-11-25 05:20:00,
2013-11-24 21:25:00,25.2,21.6,30.48,NE,44,0.0,0.0,86,0.00,,,0.00,0,Wunderground v.1.15,2013-11-25 05:25:00,
2013-11-24 21:30:00,25.1,21.5,30.48,NE,44,0.0,0.0,86,0.00,,,0.00,0,Wunderground v.1.15,2013-11-25 05:30:00,
2013-11-24 21:35:00,25.1,21.5,30.48,NE,44,0.0,0.0,86,0.00,,,0.00,0,Wunderground v.1.15,2013-11-25 05:35:00,
2013-11-24 21:40:00,25.1,21.8,30.48,NE,44,0.0,0.0,87,0.00,,,0.00,0,Wunderground v.1.15,2013-11-25 05:40:00,
2013-11-24 21:45:00,25.0,21.7,30.49,NE,44,0.0,0.0,87,0.00,,,0.00,0,Wunderground v.1.15,2013-11-25 05:45:00,
2013-11-24 21:50:00,24.9,21.6,30.49,NE,44,0.0,0.0,87,0.00,,,0.00,0,Wunderground v.1.15,2013-11-25 05:50:00,
2013-11-24 21:55:00,24.9,21.6,30.49,NE,44,0.0,0.0,87,0.00,,,0.00,0,Wunderground v.1.15,2013-11-25 05:55:00,
2013-11-24 22:00:00,24.8,21.2,30.49,NE,44,0.0,0.0,86,0.00,,,0.00,0,Wunderground v.1.15,2013-11-25 06:00:00,
2013-11-24 22:05:00,24.7,21.4,30.49,NE,44,0.0,0.0,87,0.00,,,0.00,0,Wunderground v.1.15,2013-11-25 06:05:00,
2013-11-24 22:10:00,24.5,21.2,30.49,NE,44,0.0,0.0,87,0.00,,,0.00,0,Wunderground v.1.15,2013-11-25 06:10:00,
2013-11-24 22:15:00,24.4,21.1,30.49,NE,44,0.0,0.0,87,0.00,,,0.00,0,Wunderground v.1.15,2013-11-25 06:15:00,
2013-11-24 22:20:00,24.4,21.1,30.49,NE,44,0.0,0.0,87,0.00,,,0.00,0,Wunderground v.1.15,2013-11-25 06:20:00,
2013-11-24 22:25:00,24.4,21.4,30.49,NE,44,0.0,0.0,88,0.00,,,0.00,0,Wunderground v.1.15,2013-11-25 06:25:00,
2013-11-24 22:30:00,24.5,21.5,30.49,NE,44,0.0,0.0,88,0.00,,,0.00,0,Wunderground v.1.15,2013-11-25 06:30:00,
2013-11-24 22:40:00,24.7,21.7,30.49,NE,44,0.0,0.0,88,0.00,,,0.00,0,Wunderground v.1.15,2013-11-25 06:40:00,
2013-11-24 22:45:00,24.7,21.7,30.49,NE,44,0.0,0.0,88,0.00,,,0.00,0,Wunderground v.1.15,2013-11-25 06:45:00,
2013-11-24 22:50:00,24.8,21.8,30.49,NE,44,0.0,0.0,88,0.00,,,0.00,0,Wunderground v.1.15,2013-11-25 06:50:00,
2013-11-24 23:00:00,24.9,21.8,30.49,NE,44,0.0,0.0,88,0.00,,,0.00,0,Wunderground v.1.15,2013-11-25 07:00:00,
2013-11-24 23:05:00,24.9,21.8,30.49,NE,44,0.0,0.0,88,0.00,,,0.00,0,Wunderground v.1.15,2013-11-25 07:05:00,
2013-11-24 23:15:00,25.1,22.0,30.49,NE,44,0.0,0.0,88,0.00,,,0.00,0,Wunderground v.1.15,2013-11-25 07:15:00,
2013-11-24 23:20:00,25.1,22.0,30.49,NE,44,0.0,0.0,88,0.00,,,0.00,0,Wunderground v.1.15,2013-11-25 07:20:00,
2013-11-24 23:30:00,25.3,22.2,30.49,NE,44,0.0,0.0,88,0.00,,,0.00,0,Wunderground v.1.15,2013-11-25 07:30:00,
2013-11-24 23:35:00,25.3,22.0,30.50,NE,44,0.0,0.0,87,0.00,,,0.00,0,Wunderground v.1.15,2013-11-25 07:35:00,
2013-11-24 23:45:00,25.1,21.8,30.50,NE,44,0.0,0.0,87,0.00,,,0.00,0,Wunderground v.1.15,2013-11-25 07:45:00,
2013-11-24 23:50:00,25.0,21.7,30.50,NE,44,0.0,0.0,87,0.00,,,0.00,0,Wunderground v.1.15,2013-11-25 07:50:00,
2013-11-24 23:55:00,24.9,21.6,30.50,NE,44,0.0,0.0,87,0.00,,,0.00,0,Wunderground v.1.15,2013-11-25 07:55:00,